Location: Oberwangen
(47.4286°N, 8.9679°E)
Time: 08:03:43
(UTC+00:00)

Meteor 1-24 Rocket - Pass Details

Date: 20 June 2021
Orbit: 790 x 927 km, 81.3° (Epoch: 04 August)

Event Time Altitude Azimuth Distance (km) Brightness Sun altitude
Exits shadow 20:51:29 14° 160° (SSE) 2,133 5.2 -11.1°
Maximum altitude 20:55:51 44° 93° (E) 1,124 4.1 -11.5°
Drops below altitude 10° 21:01:02 10° 23° (NNE) 2,452 6.6 -12.0°
Sets 21:03:35 0° 17° (NNE) 3,412 7.5 -12.2°
